Location: Poughquag
(41.6090°N, 73.6820°W)
Time: 12:44:07
(UTC-04:00)

Transit 2A Rocket - Pass Details

Date: 06 June 2020
Orbit: 584 x 919 km, 66.7° (Epoch: 06 July)

Event Time Altitude Azimuth Distance (km) Brightness Sun altitude
Rises 20:33:36 0° 181° (S) 3,029 7.8 -2.0°
Reaches altitude 10° 20:36:00 10° 172° (S) 2,170 7.0 -2.3°
Maximum altitude 20:40:24 32° 109° (ESE) 1,265 5.7 -3.0°
Drops below altitude 10° 20:45:12 10° 48° (NE) 2,385 7.4 -3.7°
Sets 20:47:57 0° 39° (NE) 3,377 8.3 -4.2°
